{"data":{"norad_id":62409,"intl_designator":"2024-249A","name":"STARLINK-11444 [DTC]","alt_names":[],"object_type":"PAYLOAD","status":"ACTIVE","operator":null,"country":"US","launch_date":"2024-12-23","launch_site_code":"AFETR","launch_vehicle":null,"mission":null,"orbit_class":"UNKNOWN","rcs_meters":null,"size_class":null,"mass_kg":null,"dimensions":null,"purposes":["comms"],"wikipedia_slug":null,"has_3d_model":false,"image_url":null,"decayed_at":null,"tle_current":{"epoch":"2026-05-25T03:47:40.831008Z","epoch_age_seconds":54778,"freshness":"FRESH","line1":"1 62409U 24249A   26145.15811147  .00301521  00000+0  22628-2 0  9991","line2":"2 62409  43.0011  67.0429 0001790 283.7693  76.2975 15.70906817 81509","mean_motion":15.70906817,"eccentricity":0.000179,"inclination_deg":43.0011,"raan_deg":67.0429,"arg_perigee_deg":283.7693,"mean_anomaly_deg":76.2975,"bstar":0.0022628,"rev_number":8150,"period_min":91.66679935542,"perigee_km":355.09862789109,"apogee_km":357.50955780233,"semimajor_km":6734.4410928467,"source":"CELESTRAK","updated_at":"2026-05-25T13:38:19.651913Z"}}}